Beaufort, SC

9:20 PM EST on December 03, 2016 (GMT -0500)
Beaufort Marine Corps Air Station

Weather History for KNBC - February, 2014

Change the Weather History Date:

Friday, February 7, 2014

  Actual Average Record
Temperature  
Mean Temperature 48 °F -  
Max Temperature 57 °F 59 °F 59 °F (2015)
Min Temperature 39 °F 40 °F 28 °F (2015)
Degree Days  
Heating Degree Days 17    
Moisture  
Dew Point 37 °F    
Average Humidity 71    
Maximum Humidity 86    
Minimum Humidity 44    
Precipitation  
Precipitation 0.00 in - - ()
Sea Level Pressure  
Sea Level Pressure 30.28 in    
Wind  
Wind Speed 7 mph (ENE)    
Max Wind Speed 10 mph    
Max Gust Speed -    
Visibility 10 miles    
Events      
Averages and records for this station are not official NWS values.
T = Trace of Precipitation, MM = Missing Value Source: NWS Daily Summary

Daily Weather History Graph

Daily Weather History Graph

Search for Another Location

Airport or City:

Trip Planner

Search our weather history database for the weather conditions in past years. The results will help you decide how hot, cold, wet, or windy it might be!

Date:

Astronomy

Feb. 07, 2014 Rise Set
Actual Time 7:12 AM EST 6:01 PM EST
Civil Twilight 6:47 AM EST 6:27 PM EST
Nautical Twilight 6:18 AM EST 6:56 PM EST
Astronomical Twilight 5:49 AM EST 7:25 PM EST
Moon 12:15 PM EST (2/7) 1:24 AM EST (2/7)
Length of Visible Light 11h 39m
Length of Day
10h 48m
First Quarter, 59% of the Moon is Illuminated
Feb 7
First Quarter
Feb 14
Full
Feb 22
Last Quarter
Mar 1
New
Mar 8
First Quarter

Hourly Weather History & Observations

Time (EST) Temp. Windchill Dew Point Humidity Pressure Visibility Wind Dir Wind Speed Gust Speed Precip Events Conditions
12:56 AM 44.1 °F 40.1 °F 37.0 °F 76% 30.28 in 10.0 mi North 6.9 mph - 0.00 in   Overcast
1:56 AM 43.0 °F 37.2 °F 37.0 °F 80% 30.25 in 10.0 mi NE 10.4 mph - N/A   Mostly Cloudy
2:56 AM 43.0 °F 37.7 °F 36.0 °F 76% 30.23 in 10.0 mi NE 9.2 mph - N/A   Partly Cloudy
3:56 AM 39.9 °F 35.1 °F 35.1 °F 83% 30.24 in 10.0 mi NE 6.9 mph - N/A   Clear
4:56 AM 39.9 °F 36.7 °F 36.0 °F 86% 30.25 in 10.0 mi NE 4.6 mph - N/A   Clear
5:56 AM 39.9 °F 35.1 °F 36.0 °F 86% 30.28 in 10.0 mi North 6.9 mph - N/A   Clear
6:56 AM 39.9 °F 34.5 °F 36.0 °F 86% 30.30 in 9.0 mi North 8.1 mph - N/A   Scattered Clouds
7:56 AM 39.9 °F 34.5 °F 36.0 °F 86% 30.31 in 5.0 mi NE 8.1 mph - N/A   Mostly Cloudy
8:56 AM 42.1 °F 36.6 °F 36.0 °F 79% 30.31 in 6.0 mi East 9.2 mph - N/A   Mostly Cloudy
9:56 AM 46.0 °F 43.1 °F 36.0 °F 68% 30.34 in 10.0 mi Variable 5.8 mph - N/A   Mostly Cloudy
10:56 AM 48.0 °F - 34.0 °F 58% 30.35 in 10.0 mi ENE 8.1 mph - N/A   Mostly Cloudy
11:56 AM 51.1 °F - 34.0 °F 52% 30.33 in 10.0 mi ENE 9.2 mph - N/A   Mostly Cloudy
12:56 PM 52.0 °F - 34.0 °F 50% 30.29 in 10.0 mi Calm Calm - N/A   Mostly Cloudy
1:56 PM 54.0 °F - 35.1 °F 49% 30.27 in 10.0 mi Variable 4.6 mph - N/A   Mostly Cloudy
2:56 PM 57.0 °F - 35.1 °F 44% 30.25 in 10.0 mi NE 4.6 mph - N/A   Mostly Cloudy
3:56 PM 57.0 °F - 35.1 °F 44% 30.25 in 10.0 mi NE 5.8 mph - N/A   Mostly Cloudy
4:56 PM 55.0 °F - 37.9 °F 53% 30.25 in 10.0 mi ENE 6.9 mph - N/A   Mostly Cloudy
5:56 PM 50.0 °F - 42.1 °F 74% 30.26 in 10.0 mi SE 4.6 mph - N/A   Mostly Cloudy
6:56 PM 46.9 °F - 39.9 °F 77% 30.27 in 10.0 mi ESE 4.6 mph - N/A   Clear
7:56 PM 46.9 °F - 39.9 °F 77% 30.27 in 10.0 mi ESE 4.6 mph - N/A   Clear
8:56 PM 46.0 °F 44.8 °F 39.0 °F 76% 30.27 in 10.0 mi ESE 3.5 mph - N/A   Clear
9:56 PM 46.0 °F 43.9 °F 39.0 °F 76% 30.27 in 10.0 mi East 4.6 mph - N/A   Clear
10:56 PM 45.0 °F 43.5 °F 39.9 °F 82% 30.26 in 10.0 mi ENE 3.5 mph - N/A   Mostly Cloudy
11:56 PM 46.0 °F 44.8 °F 39.9 °F 79% 30.25 in 10.0 mi NNE 3.5 mph - N/A   Overcast